STARLINK-32435, 61259

Orbit data source: Space-Track

STARLINK-32435, 61259 is a payload satellite owned by SpaceX/Seattle (US) in LEO that was launched on Wed, 25 Sep 2024 UTC via an FALCON 9 launch vehicle from the Air Force Western Test Range (AFWTR). Payloads include a variety of satellites, spacecraft, and rockets equipped with specific instruments for various scientific and technological missions. These include communications satellites like Starlink; space stations such as the ISS; scientific satellites like the Hubble; Earth observation satellites from companies like Planet Labs, Umbra, and HawkEye 360; GPS; miniature CubeSats for education and research; and military/defense satellites.

Loading next visibility...
STARLINK-32435 details
Identifier
61259, 2024-175S
Orbit
LEO
Last TLE update19 hours ago
Origin
Flag of USSpaceX/Seattle (US)
ManufacturerSpaceX/Seattle
MissionOperational spacecraft
Bus & MotorSTARLINK V2M, Unknown motor
Mass730 kg wet, ~700 kg dry
Launch date (UTC)
2024-09-25 (3 months ago)
Launch vehicle
FALCON 9
Launch site
Air Force Western Test Range (AFWTR)
Object type
Payload
Rocket body
Debris
Shape & HBRUnknown
Radar Cross SectionLarge (>1 m²)

Expand to show TLE details & history

TLE from 19 hours ago
0 STARLINK-32435
1 61259U 24175S   24355.70072891 -.00004585  00000-0 -10463-3 0  9996
2 61259  53.1590  99.3970 0001434 110.1525 249.9634 15.39640414 13437
Epoch: 2024-12-20T16:49Z
Definitive object data (Epoch: 2024-12-20T16:49:02.977Z)
Latitude-0.00006°
Longitude117.37208°
Altitude448.411 km
Speed7.644 km/s
True Right ascension06h 37m 35s
True Declination0° 00' 00"
Sunlit
Object was in full shadow at TLE epoch
Visualization TLE readout
Latitude20.58435°
Longitude-82.67948°
Altitude446.976 km
Speed7.647 km/s
Apparent Right ascension19h 45m 25s
Apparent Declination-11° 42' 11"
Sunlit
Object is in daylight
Visualization observer readout
Local Sidereal Time11:12:28
Azimuth73.124° E
Elevation-36.512°
Doppler factor1
Orbital elements
Apogee altitude448.408 km
Perigee altitude446.451 km
Semi-major axis6,825.566 km
Eccentricity0.0001434
Inclination53.159°
RAAN99.397°
Arg. of periapsis110.1525°
True anomaly249.94796°
Mean anomaly249.9634°
Eccentric anomaly249.95568°
Mean motion3.84889 °/min
BSTAR-0.00010463
Orbital period93.53 mins
Loading maneuver chart data...
Loading historical data...
Loading historical data...
Loading historical data...
Loading historical data...
Loading historical data...
Loading historical data...
Loading historical data...

STARLINK-32435 Visibility forecast

Observer location: undefined°, undefined

Span
Click to sort rows by Start time (UTC) header in descending order
Start Az.
Max El. time (UTC)
Max El. Az.
Max El.
End time (UTC)
End Az.
4 mins2024-12-21 15:04:42.785Z347.295° N2024-12-21 15:06:42.785Z27.843° NE16.89°2024-12-21 15:08:42.785Z64.693° ENE
5 mins2024-12-21 16:41:42.785Z308.531° NW2024-12-21 16:43:42.785Z300.134° NW42.175°2024-12-21 16:46:42.785Z133.318° SE
5 mins2024-12-22 09:30:42.785Z227.27° WSW2024-12-22 09:32:42.785Z220.672° SW42.494°2024-12-22 09:35:42.785Z51.009° ENE
|